Regional Weather Roundup
Issued by NWS Raleigh/Durham, NC

Current Version | Previous Version | Text Only | Print | Product List | Glossary On
Versions: 1 2 3 4 5 6 7 8 9 10 11 12 13 14 15 16 17 18 19 20 21 22 23 24 25 26 27 28 29 30 31 32 33 34 35 36 37 38 39 40 41 42 43 44 45 46 47 48 49 50
000 ASUS42 KRAH 070610 RWRRAH NORTH CAROLINA WEATHER ROUNDUP NATIONAL WEATHER SERVICE RALEIGH NC 200 AM EDT TUE JUL 07 2015 NOTE: "FAIR" INDICATES FEW OR NO CLOUDS BELOW 12,000 FEET WITH NO SIGNIFICANT WEATHER AND/OR OBSTRUCTIONS TO VISIBILITY. NCZ001-053-055-056-065-067-070700- WESTERN NORTH CAROLINA CITY SKY/WX TMP DP RH WIND PRES REMARKS ASHEVILLE CLEAR 66 62 87 N3 30.20R JEFFERSON PTCLDY 61 61 100 CALM 30.23R FOG MORGANTON CLEAR 69 68 98 CALM 30.18R FOG HICKORY CLEAR 69 66 90 E3 30.13R RUTHERFORDTON NOT AVBL MOUNT AIRY CLEAR 68 65 91 CALM 30.15S BOONE CLEAR 59 58 97 CALM 30.25R FOG $$ NCZ021-022-025-041-071-084-088-070700- CENTRAL NORTH CAROLINA CITY SKY/WX TMP DP RH WIND PRES REMARKS CHARLOTTE PTCLDY 74 68 81 CALM 30.11R GREENSBORO PTCLDY 73 68 84 W5 30.10S WINSTON-SALEM CLEAR 69 66 90 CALM 30.12S RALEIGH-DURHAM PTCLDY 74 66 76 SW6 30.08F FORT BRAGG CLEAR 76 70 83 SW6 30.08S FAYETTEVILLE CLEAR 74 71 91 S5 30.08F BURLINGTON MOCLDY 70 67 90 SW5 30.09F LAURINBURG CLEAR 72 69 90 SW5 30.10S FOG $$ NCZ011-015-027-028-043-044-047-080-103-070700- NORTHEASTERN NORTH CAROLINA CITY SKY/WX TMP DP RH WIND PRES REMARKS ROCKY MT-WILSO CLEAR 74 70 87 S3 30.09R GREENVILLE CLEAR 75 72 88 SW7 30.10S WASHINGTON CLEAR 75 72 91 S3 30.10S ELIZABETH CITY CLEAR 76 73 91 S9 30.08S MANTEO CLEAR 78 73 86 SW13 30.10S CAPE HATTERAS CLEAR 77 75 93 SW9 30.10F $$ NCZ078-087-090-091-093-098-101-070700- SOUTHEASTERN NORTH CAROLINA CITY SKY/WX TMP DP RH WIND PRES REMARKS LUMBERTON PTCLDY 75 71 87 SW3 30.09S GOLDSBORO CLEAR 74 71 89 CALM 30.07S KINSTON CLEAR 73 70 90 S3 30.10S KENANSVILLE CLEAR 73 70 92 CALM 30.11R NEW BERN CLEAR 76 73 91 S6 30.10F CHERRY POINT CLEAR 77 72 84 S3 30.11S BEAUFORT CLEAR 79 76 90 SW13 30.10S JACKSONVILLE PTCLDY 76 73 91 S5 30.09F WILMINGTON CLEAR 76 72 87 S5 30.10S $$

USA.gov is the U.S. government's official web portal to all federal, state and local government web resources and services.